Location: Pasarilla del Rebollar
(40.6790°N, 5.0062°W)
Time: 10:46:09
(UTC+00:00)

SL-4 R/B - Pass Details

Date: 22 April 2026
Orbit: 380 x 506 km, 51.6° (Epoch: 13 May)

Event Time Altitude Azimuth Distance (km) Brightness Sun altitude
Exits shadow 03:06:06 31° 341° (NNW) 887 3.2 -24.5°
Maximum altitude 03:07:23 44° 29° (NNE) 696 2.9 -24.3°
Drops below altitude 10° 03:11:01 10° 103° (ESE) 1,663 4.9 -23.8°
Sets 03:13:13 0° 110° (ESE) 2,520 5.8 -23.5°
